DW4174 Weather Reports


time (UTC)temp
C
wind
direction
speed
KPH
gust
KPH
rain 1hr
cm
rain 24hr
cm
rain mn
cm
humidity
%
barometer
mb
20260507105710 19 25 4.8 9.7 0.00 0.00 0.00 33 1011.9
20260507104810 18 27 3.2 6.4 0.00 0.00 0.00 33 1012.0
20260507103910 18 29 1.6 4.8 0.00 0.00 0.00 34 1012.1
20260507103010 18 29 0.0 4.8 0.00 0.00 0.00 34 1012.1
20260507102110 19 0 0.0 0.0 0.00 0.00 0.00 33 1012.2
20260507101210 18 30 1.6 4.8 0.00 0.00 0.00 34 1012.3
20260507100310 20 30 3.2 6.4 0.00 0.00 0.00 33 1012.4
20260507095409 20 31 3.2 6.4 0.00 0.00 0.00 33 1012.4
20260507094510 19 37 3.2 6.4 0.00 0.00 0.00 33 1012.5
20260507093610 19 50 1.6 6.4 0.00 0.00 0.00 34 1012.5
20260507092710 19 50 3.2 4.8 0.00 0.00 0.00 34 1012.5
20260507090910 20 51 3.2 4.8 0.00 0.00 0.00 32 1012.5
20260507090010 20 51 3.2 4.8 0.00 0.00 0.00 32 1012.5
20260507085110 20 52 3.2 6.4 0.00 0.00 0.00 32 1012.6
20260507083310 20 55 0.0 4.8 0.00 0.00 0.00 32 1012.7
20260507081509 20 343 1.6 3.2 0.00 0.00 0.00 34 1012.8
20260507080609 20 342 3.2 4.8 0.00 0.00 0.00 33 1012.8
20260507075710 20 341 1.6 6.4 0.00 0.00 0.00 33 1012.8
20260507074810 20 340 1.6 4.8 0.00 0.00 0.00 34 1012.8
20260507073909 20 340 1.6 3.2 0.00 0.00 0.00 34 1012.9
20260507073009 20 339 0.0 3.2 0.00 0.00 0.00 34 1012.8
20260507072110 20 0 0.0 0.0 0.00 0.00 0.00 33 1012.7
20260507070310 21 337 3.2 6.4 0.00 0.00 0.00 31 1012.8
20260507065409 21 330 1.6 6.4 0.00 0.00 0.00 31 1012.7
20260507064509 21 299 0.0 4.8 0.00 0.00 0.00 32 1012.7
20260507062709 21 0 0.0 0.0 0.00 0.00 0.00 31 1012.6
20260507060909 21 0 0.0 0.0 0.00 0.00 0.00 31 1012.6
20260507060009 21 0 0.0 0.0 0.00 0.00 0.00 30 1012.6
20260507054209 22 0 0.0 0.0 0.00 0.00 0.00 29 1012.6
20260507053309 22 0 0.0 0.0 0.00 0.00 0.00 29 1012.7
20260507052409 22 0 0.0 0.0 0.00 0.00 0.00 29 1012.7
20260507051509 22 266 0.0 1.6 0.00 0.00 0.00 28 1012.7
20260507050609 23 265 1.6 3.2 0.00 0.00 0.00 27 1012.6
20260507045709 23 265 1.6 3.2 0.00 0.00 0.00 26 1012.5
20260507043909 23 266 3.2 4.8 0.00 0.00 0.00 26 1012.4
20260507042109 24 264 3.2 6.4 0.00 0.00 0.00 25 1012.2
20260507041209 24 264 3.2 4.8 0.00 0.00 0.00 25 1012.1
20260507040309 25 260 3.2 6.4 0.00 0.00 0.00 24 1012.1
20260507035409 25 253 3.2 6.4 0.00 0.00 0.00 24 1011.8
20260507034509 24 264 3.2 9.7 0.00 0.00 0.00 24 1011.8
20260507033609 24 253 1.6 6.4 0.00 0.00 0.00 24 1011.7
20260507032709 25 252 1.6 4.8 0.00 0.00 0.00 24 1011.6
20260507030009 25 255 3.2 6.4 0.00 0.00 0.00 23 1011.2
20260507025109 26 249 3.2 8.0 0.00 0.00 0.00 23 1011.2
20260507024209 26 286 3.2 6.4 0.00 0.00 0.00 22 1011.0
20260507023309 26 287 4.8 9.7 0.00 0.00 0.00 21 1010.9
20260507022409 26 286 6.4 11.3 0.00 0.00 0.00 21 1010.9
20260507021510 27 285 6.4 11.3 0.00 0.00 0.00 20 1010.7
20260507020609 27 272 4.8 11.3 0.00 0.00 0.00 20 1010.7
20260507015709 27 257 3.2 12.9 0.00 0.00 0.00 19 1010.7
20260507014809 27 247 4.8 14.5 0.00 0.00 0.00 20 1010.7
20260507013009 28 269 4.8 14.5 0.00 0.00 0.00 19 1010.7
20260507012109 28 269 4.8 11.3 0.00 0.00 0.00 19 1010.7
20260507011209 28 236 4.8 9.7 0.00 0.00 0.00 19 1010.7
20260507010309 28 212 6.4 14.5 0.00 0.00 0.00 19 1010.7
20260507005409 28 229 4.8 19.3 0.00 0.00 0.00 19 1010.7
20260507003609 29 260 9.7 19.3 0.00 0.00 0.00 18 1010.6
20260507002709 29 264 9.7 20.9 0.00 0.00 0.00 18 1010.6
20260507001809 29 270 6.4 20.9 0.00 0.00 0.00 18 1010.5
20260507000909 29 262 9.7 14.5 0.00 0.00 0.00 18 1010.6
20260506235109 30 285 6.4 12.9 0.00 0.00 0.00 18 1010.6
20260506234209 30 281 6.4 16.1 0.00 0.00 0.00 18 1010.7
20260506233309 30 266 4.8 16.1 0.00 0.00 0.00 18 1010.8
20260506232409 29 236 4.8 11.3 0.00 0.00 0.00 19 1010.9
20260506231509 29 285 6.4 17.7 0.00 0.00 0.00 18 1011.0
20260506230609 29 213 3.2 11.3 0.00 0.00 0.00 18 1011.1
20260506225709 28 166 4.8 12.9 0.00 0.00 0.00 20 1011.1
20260506224809 28 196 6.4 12.9 0.00 0.00 0.00 19 1011.2
20260506223909 30 270 6.4 16.1 0.00 0.00 0.00 18 1011.3
20260506223010 30 292 8.0 16.1 0.00 0.00 0.00 18 1011.4
20260506222109 30 281 8.0 17.7 0.00 0.00 0.00 19 1011.5
20260506221209 30 304 6.4 24.1 0.00 0.00 0.00 19 1011.7
20260506220309 28 270 6.4 17.7 0.00 0.00 0.00 19 1011.8
20260506215409 28 264 4.8 22.5 0.00 0.00 0.00 19 1011.9
20260506214509 28 321 6.4 12.9 0.00 0.00 0.00 19 1012.0
20260506213609 28 314 9.7 16.1 0.00 0.00 0.00 19 1012.2
20260506212709 30 301 6.4 17.7 0.00 0.00 0.00 18 1012.3
20260506211808 28 68 3.2 12.9 0.00 0.00 0.00 19 1012.4
20260506210908 28 314 8.0 14.5 0.00 0.00 0.00 19 1012.7
20260506210009 28 317 9.7 30.6 0.00 0.00 0.00 19 1012.8
20260506205110 28 277 9.7 19.3 0.00 0.00 0.00 19 1012.9
20260506204209 29 248 6.4 20.9 0.00 0.00 0.00 19 1013.1
20260506203309 28 263 6.4 16.1 0.00 0.00 0.00 19 1013.2
20260506202409 27 299 8.0 17.7 0.00 0.00 0.00 20 1013.2
20260506200608 28 280 8.0 22.5 0.00 0.00 0.00 20 1013.4
20260506195709 28 260 4.8 11.3 0.00 0.00 0.00 21 1013.4
20260506194808 28 258 8.0 17.7 0.00 0.00 0.00 20 1013.6
20260506193908 28 246 6.4 17.7 0.00 0.00 0.00 21 1013.6
20260506192110 28 262 8.0 19.3 0.00 0.00 0.00 21 1013.9
20260506190308 27 313 4.8 17.7 0.00 0.00 0.00 22 1014.0
20260506185408 26 191 4.8 11.3 0.00 0.00 0.00 24 1014.1
20260506184509 26 182 4.8 11.3 0.00 0.00 0.00 24 1014.2
20260506183608 27 270 8.0 19.3 0.00 0.00 0.00 24 1014.4
20260506180908 26 190 3.2 12.9 0.00 0.00 0.00 26 1014.7
20260506175108 25 355 4.8 12.9 0.00 0.00 0.00 27 1014.8
20260506174208 25 303 4.8 12.9 0.00 0.00 0.00 27 1014.8
20260506173308 24 244 4.8 14.5 0.00 0.00 0.00 29 1014.9
20260506171509 24 253 4.8 11.3 0.00 0.00 0.00 28 1014.8
20260506170609 25 261 3.2 16.1 0.00 0.00 0.00 28 1014.8
20260506164809 23 303 4.8 9.7 0.00 0.00 0.00 29 1014.8
20260506163908 23 293 3.2 12.9 0.00 0.00 0.00 29 1014.7
20260506163008 23 172 4.8 12.9 0.00 0.00 0.00 32 1014.8
20260506161208 22 136 1.6 6.4 0.00 0.00 0.00 32 1014.7
20260506160308 22 165 3.2 6.4 0.00 0.00 0.00 33 1014.7
20260506152708 21 347 3.2 8.0 0.00 0.00 0.00 35 1014.9
20260506151808 21 73 3.2 6.4 0.00 0.00 0.00 35 1014.9
20260506150908 20 123 0.0 6.4 0.00 0.00 0.00 36 1014.9
20260506150008 20 146 0.0 1.6 0.00 0.00 0.00 38 1014.8
20260506145108 19 146 1.6 3.2 0.00 0.00 0.00 39 1014.7
20260506144208 18 146 1.6 4.8 0.00 0.00 0.00 40 1014.7
20260506143308 18 146 1.6 6.4 0.00 0.00 0.00 42 1014.6
20260506142408 18 147 1.6 6.4 0.00 0.00 0.00 43 1014.5
20260506141509 17 148 1.6 6.4 0.00 0.00 0.00 44 1014.4
20260506140608 17 145 1.6 6.4 0.00 0.00 0.00 44 1014.3
20260506135708 17 114 1.6 4.8 0.00 0.00 0.00 45 1014.2
20260506134808 16 160 3.2 9.7 0.00 0.00 0.00 45 1014.0
20260506133908 16 175 1.6 4.8 0.00 0.00 0.00 46 1013.9
20260506133008 16 175 0.0 4.8 0.00 0.00 0.00 48 1013.8
20260506131208 14 0 0.0 0.0 0.00 0.00 0.00 51 1013.6
20260506125408 13 0 0.0 0.0 0.00 0.00 0.00 52 1013.5
20260506124508 13 0 0.0 0.0 0.00 0.00 0.00 51 1013.4
20260506123608 13 0 0.0 0.0 0.00 0.00 0.00 50 1013.3
20260506121808 15 175 3.2 4.8 0.00 0.00 0.00 47 1013.0
20260506120908 15 174 1.6 4.8 0.00 0.00 0.00 46 1012.9
20260506120008 15 175 1.6 4.8 0.00 0.00 0.00 47 1012.9
20260506115108 15 175 3.2 4.8 0.00 0.00 0.00 45 1012.9
20260506114208 15 185 3.2 6.4 0.00 0.00 0.00 45 1012.9
20260506113308 16 195 1.6 6.4 0.00 0.00 0.00 45 1012.9
20260506112408 15 199 0.0 6.4 0.00 0.00 0.00 46 1012.8
20260506111508 15 0 0.0 0.0 0.00 0.00 0.00 48 1012.8
20260506110608 15 0 0.0 0.0 0.00 0.00 0.00 49 1012.7